sat.trackr.live / text

‹ back to catalog

ONEWEB-0131

NORAD 47277 · 2020-100V

PAYLOAD ACTIVE UNKNOWN

§ Identity

Operator
Country
UK
Launch date
2020-12-18
Launch site
VOSTO
Launch vehicle
Mass (kg)
RCS (m²)

Purposes: comms

External: N2YO · Heavens-Above · Gunter

§ Orbital elements

Epoch: 2026-09-15T16:19:12.358560Z

Period
109.72 min
Inclination
87.8977°
Eccentricity
0.0001919
Mean motion
13.12441544 rev/d
Perigee alt
1,212.3 km
Apogee alt
1,215.2 km
Semi-major
7,591.9 km
B*
-9.6340e-6
RAAN
332.6988°
Arg perigee
95.3855°
Mean anomaly
264.7492°
Rev number
27,655

§ Raw data

ONEWEB-01311 47277U 20100V   26258.68000415  .00000009  00000+0 -96340-5 0  99932 47277  87.8977 332.6988 0001919  95.3855 264.7492 13.12441544276557

JSON: /api/v1/satellites/47277 · /tle

For live sub-satellite position, see the globe view (requires WebGL).

§ Visibility from observer

Set your observer location to see the next 7 days of passes ≥ 10°. The values pass through the URL so the page stays shareable.

No JS? Fill the form by hand. The geolocation button needs JavaScript.